AVA440 SKBO-SKPS

Flight info

Callsign AVA440
Flight time 0h 48m
Altitude 36000
Route VAPOM4R VAPOM DCT OREGA DCT PPN DCT MER
Aircraft A20N/M-SDE2E3FGHIRWXY/LB1

Departure

Time 2026-05-05 01:39
Airport El Dorado International Airport (SKBO)

Arrival

Time 2026-05-05 02:27
Airport Antonio Nariño Airport (SKPS)
Time Latitude Longitude Altitude Speed Heading
2026-05-05 01:21 4.69862 -74.14626 8370 ft 0 kts 105°
2026-05-05 01:28 4.69862 -74.14628 8372 ft 1 kts 105°
2026-05-05 01:28 4.69866 -74.14642 8371 ft 2 kts 105°
2026-05-05 01:29 4.69870 -74.14657 8370 ft 2 kts 105°
2026-05-05 01:29 4.69873 -74.14666 8370 ft 2 kts 105°
2026-05-05 01:29 4.69872 -74.14681 8370 ft 2 kts 68°
2026-05-05 01:29 4.69864 -74.14694 8370 ft 2 kts 38°
2026-05-05 01:30 4.69858 -74.14698 8370 ft 2 kts 23°
2026-05-05 01:30 4.69843 -74.14701 8370 ft 2 kts 352°
2026-05-05 01:30 4.69828 -74.14696 8370 ft 2 kts 322°
2026-05-05 01:30 4.69822 -74.14690 8370 ft 1 kts 304°
2026-05-05 01:31 4.69819 -74.14685 8370 ft 0 kts 306°
2026-05-05 01:32 4.69820 -74.14686 8370 ft 0 kts 306°
2026-05-05 01:32 4.69827 -74.14695 8369 ft 3 kts 307°
2026-05-05 01:33 4.69851 -74.14725 8370 ft 7 kts 311°
2026-05-05 01:33 4.69895 -74.14774 8369 ft 11 kts 332°
2026-05-05 01:33 4.69966 -74.14748 8370 ft 11 kts 38°
2026-05-05 01:33 4.70036 -74.14694 8369 ft 13 kts 37°
2026-05-05 01:34 4.70115 -74.14635 8370 ft 14 kts 36°
2026-05-05 01:34 4.70201 -74.14572 8369 ft 15 kts 37°
2026-05-05 01:34 4.70292 -74.14503 8371 ft 16 kts 37°
2026-05-05 01:34 4.70388 -74.14431 8370 ft 17 kts 37°
2026-05-05 01:35 4.70471 -74.14397 8371 ft 12 kts 332°
2026-05-05 01:35 4.70530 -74.14467 8370 ft 13 kts 307°
2026-05-05 01:35 4.70593 -74.14548 8371 ft 16 kts 307°
2026-05-05 01:35 4.70668 -74.14646 8369 ft 19 kts 308°
2026-05-05 01:36 4.70753 -74.14761 8370 ft 21 kts 307°
2026-05-05 01:36 4.70845 -74.14881 8370 ft 21 kts 307°
2026-05-05 01:36 4.70934 -74.15000 8369 ft 21 kts 307°
2026-05-05 01:36 4.71023 -74.15119 8368 ft 21 kts 307°
2026-05-05 01:37 4.71103 -74.15207 8369 ft 14 kts 336°
2026-05-05 01:37 4.71183 -74.15221 8368 ft 11 kts 355°
2026-05-05 01:37 4.71271 -74.15227 8369 ft 12 kts 360°
2026-05-05 01:37 4.71315 -74.15181 8369 ft 8 kts 107°
2026-05-05 01:38 4.71267 -74.15111 8369 ft 27 kts 126°
2026-05-05 01:38 4.71001 -74.14762 8370 ft 95 kts 127°
2026-05-05 01:38 4.70476 -74.14067 8372 ft 152 kts 127°
2026-05-05 01:38 4.69739 -74.13093 8473 ft 188 kts 125°
2026-05-05 01:39 4.68979 -74.12041 9094 ft 187 kts 125°
2026-05-05 01:39 4.68160 -74.11026 9706 ft 190 kts 137°
2026-05-05 01:39 4.66960 -74.10474 10078 ft 198 kts 179°
2026-05-05 01:39 4.65648 -74.10948 10326 ft 211 kts 223°
2026-05-05 01:40 4.64949 -74.12275 10577 ft 225 kts 256°
2026-05-05 01:40 4.64584 -74.13851 10841 ft 239 kts 255°
2026-05-05 01:40 4.64050 -74.15480 11139 ft 252 kts 249°
2026-05-05 01:40 4.63346 -74.17156 11421 ft 268 kts 244°
2026-05-05 01:41 4.62529 -74.18861 11954 ft 274 kts 243°
2026-05-05 01:41 4.61736 -74.20607 12547 ft 278 kts 250°
2026-05-05 01:41 4.61197 -74.22483 13033 ft 287 kts 257°
2026-05-05 01:41 4.60790 -74.24501 13325 ft 304 kts 259°
2026-05-05 01:42 4.60317 -74.26623 13587 ft 321 kts 253°
2026-05-05 01:42 4.59532 -74.28775 13837 ft 337 kts 244°
2026-05-05 01:42 4.58480 -74.30934 14104 ft 352 kts 242°
2026-05-05 01:42 4.57342 -74.33140 14555 ft 360 kts 242°
2026-05-05 01:43 4.56176 -74.35384 15134 ft 363 kts 242°
2026-05-05 01:43 4.55012 -74.37636 15686 ft 366 kts 242°
2026-05-05 01:43 4.53838 -74.39915 16214 ft 370 kts 242°
2026-05-05 01:43 4.52656 -74.42216 16745 ft 373 kts 242°
2026-05-05 01:44 4.51468 -74.44534 17260 ft 376 kts 242°
2026-05-05 01:44 4.50270 -74.46873 17753 ft 380 kts 242°
2026-05-05 01:44 4.49056 -74.49244 18273 ft 383 kts 242°
2026-05-05 01:44 4.47833 -74.51631 18821 ft 385 kts 242°
2026-05-05 01:45 4.46606 -74.54031 19346 ft 388 kts 242°
2026-05-05 01:45 4.45369 -74.56447 19805 ft 392 kts 242°
2026-05-05 01:45 4.44121 -74.58886 20103 ft 394 kts 242°
2026-05-05 01:45 4.42870 -74.61330 20142 ft 395 kts 242°
2026-05-05 01:46 4.41610 -74.63792 20401 ft 400 kts 242°
2026-05-05 01:46 4.40341 -74.66269 20959 ft 400 kts 242°
2026-05-05 01:46 4.39070 -74.68750 21461 ft 401 kts 242°
2026-05-05 01:46 4.37789 -74.71238 21885 ft 404 kts 242°
2026-05-05 01:47 4.36499 -74.73737 22323 ft 406 kts 242°
2026-05-05 01:47 4.35199 -74.76259 22772 ft 409 kts 242°
2026-05-05 01:47 4.33891 -74.78800 23219 ft 411 kts 242°
2026-05-05 01:47 4.32574 -74.81355 23635 ft 414 kts 242°
2026-05-05 01:48 4.31247 -74.83931 24041 ft 417 kts 242°
2026-05-05 01:48 4.29911 -74.86522 24441 ft 420 kts 242°
2026-05-05 01:48 4.28568 -74.89125 24841 ft 422 kts 242°
2026-05-05 01:48 4.27220 -74.91743 25249 ft 424 kts 242°
2026-05-05 01:49 4.25865 -74.94375 25641 ft 426 kts 242°
2026-05-05 01:49 4.24504 -74.97018 26001 ft 429 kts 242°
2026-05-05 01:49 4.23128 -74.99687 26375 ft 431 kts 242°
2026-05-05 01:49 4.21728 -75.02345 26733 ft 433 kts 240°
2026-05-05 01:50 4.20175 -75.04946 27084 ft 435 kts 237°
2026-05-05 01:50 4.18456 -75.07454 27429 ft 436 kts 233°
2026-05-05 01:50 4.16641 -75.09893 27761 ft 438 kts 232°
2026-05-05 01:50 4.14800 -75.12341 28080 ft 441 kts 232°
2026-05-05 01:51 4.12952 -75.14798 28403 ft 443 kts 232°
2026-05-05 01:51 4.11092 -75.17275 28736 ft 445 kts 232°
2026-05-05 01:51 4.09230 -75.19758 29077 ft 447 kts 232°
2026-05-05 01:51 4.07358 -75.22257 29410 ft 449 kts 232°
2026-05-05 01:52 4.05479 -75.24766 29733 ft 451 kts 232°
2026-05-05 01:52 4.03588 -75.27291 30055 ft 453 kts 232°
2026-05-05 01:52 4.01693 -75.29822 30391 ft 454 kts 232°
2026-05-05 01:52 3.99793 -75.32361 30727 ft 455 kts 232°
2026-05-05 01:53 3.97894 -75.34899 31112 ft 455 kts 232°
2026-05-05 01:53 3.95999 -75.37433 31578 ft 453 kts 232°
2026-05-05 01:53 3.94115 -75.39952 32015 ft 452 kts 232°
2026-05-05 01:53 3.92231 -75.42470 32435 ft 451 kts 232°
2026-05-05 01:54 3.90342 -75.44977 32870 ft 449 kts 231°
2026-05-05 01:54 3.88350 -75.47391 33320 ft 448 kts 228°
2026-05-05 01:54 3.86221 -75.49677 33762 ft 446 kts 224°
2026-05-05 01:54 3.83970 -75.51816 34163 ft 445 kts 221°
2026-05-05 01:55 3.81604 -75.53808 34548 ft 444 kts 218°
2026-05-05 01:55 3.79176 -75.55726 34865 ft 444 kts 217°
2026-05-05 01:55 3.76733 -75.57641 35131 ft 446 kts 217°
2026-05-05 01:55 3.74285 -75.59561 35371 ft 447 kts 217°
2026-05-05 01:56 3.71819 -75.61497 35601 ft 449 kts 217°
2026-05-05 01:56 3.69338 -75.63447 35852 ft 450 kts 218°
2026-05-05 01:56 3.66876 -75.65384 36086 ft 451 kts 218°
2026-05-05 01:56 3.64401 -75.67334 36311 ft 451 kts 218°
2026-05-05 01:57 3.59446 -75.71238 36384 ft 453 kts 218°
2026-05-05 01:57 3.54472 -75.75158 36422 ft 454 kts 218°
2026-05-05 01:58 3.49488 -75.79084 36477 ft 455 kts 218°
2026-05-05 01:58 3.44501 -75.83014 36523 ft 456 kts 218°
2026-05-05 01:59 3.39509 -75.86945 36572 ft 456 kts 218°
2026-05-05 01:59 3.34501 -75.90889 36624 ft 456 kts 218°
2026-05-05 02:00 3.29499 -75.94828 36674 ft 456 kts 218°
2026-05-05 02:00 3.24498 -75.98766 36719 ft 456 kts 218°
2026-05-05 02:01 3.19508 -76.02695 36741 ft 456 kts 218°
2026-05-05 02:01 3.14506 -76.06632 36711 ft 456 kts 218°
2026-05-05 02:02 3.09503 -76.10570 36453 ft 458 kts 217°
2026-05-05 02:02 3.06996 -76.12543 36159 ft 455 kts 217°
2026-05-05 02:02 3.04504 -76.14505 35865 ft 452 kts 217°
2026-05-05 02:03 3.02038 -76.16446 35573 ft 449 kts 217°
2026-05-05 02:03 2.99582 -76.18379 35281 ft 447 kts 217°
2026-05-05 02:03 2.97133 -76.20306 34991 ft 447 kts 217°
2026-05-05 02:03 2.94678 -76.22238 34700 ft 448 kts 217°
2026-05-05 02:04 2.92216 -76.24174 34411 ft 449 kts 217°
2026-05-05 02:04 2.89758 -76.26107 34122 ft 450 kts 217°
2026-05-05 02:04 2.87291 -76.28047 33834 ft 451 kts 217°
2026-05-05 02:04 2.84811 -76.29998 33546 ft 452 kts 217°
2026-05-05 02:05 2.82324 -76.31954 33259 ft 453 kts 217°
2026-05-05 02:05 2.79838 -76.33908 32973 ft 454 kts 217°
2026-05-05 02:05 2.77353 -76.35863 32689 ft 454 kts 217°
2026-05-05 02:05 2.74859 -76.37824 32421 ft 455 kts 217°
2026-05-05 02:06 2.72370 -76.39782 32162 ft 456 kts 217°
2026-05-05 02:06 2.69876 -76.41744 31899 ft 456 kts 217°
2026-05-05 02:06 2.67381 -76.43706 31505 ft 457 kts 217°
2026-05-05 02:06 2.64876 -76.45676 30955 ft 458 kts 217°
2026-05-05 02:07 2.62365 -76.47650 30380 ft 456 kts 217°
2026-05-05 02:07 2.59883 -76.49602 29925 ft 452 kts 217°
2026-05-05 02:07 2.57418 -76.51542 29421 ft 449 kts 217°
2026-05-05 02:07 2.54974 -76.53464 28912 ft 446 kts 217°
2026-05-05 02:08 2.52539 -76.55381 28430 ft 443 kts 217°
2026-05-05 02:08 2.50128 -76.57279 27948 ft 440 kts 217°
2026-05-05 02:08 2.47725 -76.59169 27453 ft 437 kts 217°
2026-05-05 02:08 2.45340 -76.61045 26957 ft 435 kts 217°
2026-05-05 02:09 2.42981 -76.62925 26484 ft 432 kts 218°
2026-05-05 02:09 2.40654 -76.64815 26049 ft 429 kts 218°
2026-05-05 02:09 2.38347 -76.66699 25593 ft 426 kts 218°
2026-05-05 02:09 2.36063 -76.68564 25148 ft 422 kts 218°
2026-05-05 02:10 2.33788 -76.70421 24699 ft 419 kts 218°
2026-05-05 02:10 2.31531 -76.72261 24241 ft 417 kts 218°
2026-05-05 02:10 2.29284 -76.74092 23774 ft 415 kts 218°
2026-05-05 02:10 2.27055 -76.75907 23312 ft 412 kts 218°
2026-05-05 02:11 2.24829 -76.77721 22851 ft 410 kts 217°
2026-05-05 02:11 2.22624 -76.79517 22387 ft 409 kts 217°
2026-05-05 02:11 2.20422 -76.81309 21935 ft 407 kts 217°
2026-05-05 02:11 2.18232 -76.83092 21480 ft 405 kts 217°
2026-05-05 02:12 2.16053 -76.84865 21023 ft 403 kts 217°
2026-05-05 02:12 2.11712 -76.88399 20089 ft 399 kts 217°
2026-05-05 02:12 2.09566 -76.90148 19620 ft 397 kts 217°
2026-05-05 02:13 2.07419 -76.91896 19149 ft 395 kts 217°
2026-05-05 02:13 2.05290 -76.93629 18679 ft 391 kts 217°
2026-05-05 02:13 2.03200 -76.95330 18214 ft 382 kts 217°
2026-05-05 02:13 2.01164 -76.96988 17767 ft 373 kts 217°
2026-05-05 02:14 1.99177 -76.98607 17327 ft 364 kts 217°
2026-05-05 02:14 1.97216 -77.00204 16908 ft 362 kts 217°
2026-05-05 02:14 1.95259 -77.01797 16474 ft 361 kts 217°
2026-05-05 02:14 1.93307 -77.03386 16046 ft 360 kts 217°
2026-05-05 02:15 1.91362 -77.04969 15626 ft 359 kts 217°
2026-05-05 02:15 1.89422 -77.06549 15216 ft 358 kts 217°
2026-05-05 02:15 1.87487 -77.08124 14808 ft 356 kts 217°
2026-05-05 02:15 1.85594 -77.09667 14588 ft 343 kts 217°
2026-05-05 02:16 1.83779 -77.11146 14479 ft 325 kts 217°
2026-05-05 02:16 1.82069 -77.12543 14379 ft 307 kts 217°
2026-05-05 02:16 1.80450 -77.13861 14289 ft 292 kts 217°
2026-05-05 02:16 1.78841 -77.15058 14186 ft 284 kts 211°
2026-05-05 02:17 1.77114 -77.16098 14182 ft 292 kts 206°
2026-05-05 02:17 1.75308 -77.17067 14191 ft 294 kts 205°
2026-05-05 02:17 1.73483 -77.18034 13887 ft 297 kts 205°
2026-05-05 02:17 1.71653 -77.19009 13512 ft 295 kts 205°
2026-05-05 02:18 1.69850 -77.19971 13170 ft 290 kts 205°
2026-05-05 02:18 1.68063 -77.20926 12854 ft 288 kts 205°
2026-05-05 02:18 1.66298 -77.21868 12529 ft 286 kts 205°
2026-05-05 02:18 1.64541 -77.22809 12208 ft 285 kts 206°
2026-05-05 02:19 1.62799 -77.23741 11876 ft 281 kts 206°
2026-05-05 02:19 1.61095 -77.24655 11573 ft 274 kts 206°
2026-05-05 02:19 1.59433 -77.25547 11290 ft 267 kts 206°
2026-05-05 02:19 1.57814 -77.26416 11005 ft 260 kts 206°
2026-05-05 02:20 1.56238 -77.27261 10728 ft 253 kts 206°
2026-05-05 02:20 1.54702 -77.28084 10463 ft 246 kts 206°
2026-05-05 02:20 1.53211 -77.28882 10178 ft 239 kts 206°
2026-05-05 02:20 1.51759 -77.29638 9877 ft 231 kts 205°
2026-05-05 02:21 1.50346 -77.30344 9647 ft 220 kts 205°
2026-05-05 02:21 1.49005 -77.31010 9585 ft 212 kts 205°
2026-05-05 02:21 1.47698 -77.31661 9373 ft 208 kts 204°
2026-05-05 02:21 1.46401 -77.32308 8985 ft 208 kts 205°
2026-05-05 02:22 1.45106 -77.32953 8815 ft 206 kts 206°
2026-05-05 02:22 1.43859 -77.33579 8785 ft 190 kts 205°
2026-05-05 02:22 1.42731 -77.34146 8782 ft 175 kts 205°
2026-05-05 02:22 1.41678 -77.34676 8779 ft 163 kts 205°
2026-05-05 02:23 1.40673 -77.35180 8767 ft 160 kts 205°
2026-05-05 02:23 1.39677 -77.35680 8765 ft 158 kts 204°
2026-05-05 02:23 1.38684 -77.36177 8767 ft 158 kts 204°
2026-05-05 02:23 1.37642 -77.36526 8590 ft 156 kts 186°
2026-05-05 02:24 1.36562 -77.36517 8354 ft 154 kts 165°
2026-05-05 02:24 1.35579 -77.36124 8176 ft 153 kts 147°
2026-05-05 02:24 1.34684 -77.35547 7892 ft 151 kts 135°
2026-05-05 02:24 1.34153 -77.34659 7712 ft 151 kts 104°
2026-05-05 02:25 1.33916 -77.33626 7507 ft 153 kts 100°
2026-05-05 02:25 1.33930 -77.32585 7249 ft 152 kts 70°
2026-05-05 02:25 1.34413 -77.31649 7067 ft 151 kts 58°
2026-05-05 02:25 1.35013 -77.30784 6839 ft 151 kts 51°
2026-05-05 02:26 1.35778 -77.30079 6585 ft 151 kts 24°
2026-05-05 02:26 1.36814 -77.29963 6215 ft 151 kts
2026-05-05 02:26 1.37788 -77.29660 6124 ft 148 kts 22°
2026-05-05 02:26 1.38770 -77.29333 5971 ft 147 kts 16°
2026-05-05 02:27 1.39687 -77.29090 5915 ft 115 kts 14°
2026-05-05 02:27 1.40238 -77.28945 5876 ft 61 kts 15°
2026-05-05 02:27 1.40492 -77.28877 5857 ft 29 kts 15°
2026-05-05 02:27 1.40595 -77.28842 5850 ft 10 kts 36°
2026-05-05 02:28 1.40614 -77.28852 5850 ft 5 kts 214°
2026-05-05 02:28 1.40573 -77.28860 5851 ft 5 kts 189°
2026-05-05 02:28 1.40544 -77.28865 5853 ft 2 kts 191°